Regional Weather Roundup
Issued by NWS

Home | Current Version | Previous Version | Graphics & Text | Print | Product List | Glossary On
Versions: 1 2 3 4 5 6 7 8 9 10 11 12 13 14 15 16 17 18 19 20 21 22 23 24 25 26 27 28 29 30 31 32 33 34 35 36 37 38 39 40 41 42 43 44 45 46 47 48 49 50
000
ASUS45 KABQ 230601
RWRNM
NEW MEXICO REGIONAL WEATHER ROUNDUP
NATIONAL WEATHER SERVICE ALBUQUERQUE NM
1200 AM MDT SAT JUL 23 2016

NOTE: "FAIR" MEANS FEW OR NO CLOUDS BELOW 12,000 FEET AGL WITH NO
       SIGNIFICANT WEATHER OR OBSTRUCTIONS TO VISION.

      THIS PRODUCT IS RELEASED AS TWO VERSIONS.  ONE VERSION NEAR
      THE TOP OF THE HOUR CONTAINING PRELIMINARY DATA FROM ALBUQUERQUE
      AND OTHER STATIONS.  A FINAL VERSION WITH ADDITIONAL DATA IS
      ISSUED ABOUT 10 MINUTES AFTER THE HOUR.

NMZ501-503-504-510>518-230700-
NORTHWEST PLATEAU/NORTHCENTRAL MOUNTAINS

CITY           SKY/WX    TMP DP  RH WIND       PRES   REMARKS
FARMINGTON     FAIR      78  47  33 N3        30.20F
6HR MIN TEMP:  77; 6HR MAX TEMP:  93;

LOS ALAMOS     MOCLDY    79  38  23 CALM      30.34R
SANTA FE       LGT RAIN  82  46  28 SE14      30.25R
6HR MIN TEMP:  80; 6HR MAX TEMP:  96; 6HR PCP: TRACE;

TAOS           MOCLDY    66  45  45 N8        30.34F
ANGEL FIRE     MOCLDY    67  43  42 CALM      30.46S

$$
NMZ402-403-502-505>509-230700-
WESTCENTRAL MOUNTAINS/SOUTHWEST MOUNTAINS

CITY           SKY/WX    TMP DP  RH WIND       PRES   REMARKS
GALLUP         FAIR      71  50  47 E5        30.33R
6HR MIN TEMP:  71; 6HR MAX TEMP:  90;

GRANTS         FAIR      68  49  50 N7        30.34F
SILVER CITY    FAIR      74  47  38 NW5       30.19R

$$
NMZ407-409-411-412-230700-
SOUTHERN DESERTS

CITY           SKY/WX    TMP DP  RH WIND       PRES   REMARKS
LORDSBURG      FAIR      82  50  32 W12G20    30.10R
DEMING         FAIR      85  47  26 W7        30.07S
6HR MIN TEMP:  85; 6HR MAX TEMP: 101;

LAS CRUCES     FAIR      83  39  20 SE3       30.10S
ALAMOGORDO     FAIR      86  39  19 S10       30.07S
T OR C         FAIR      86  48  26 NW20G26   30.11S
6HR MIN TEMP:  86; 6HR MAX TEMP: 100;


$$
NMZ519>523-230700-
CENTRAL VALLEYS/CENTRAL HIGHLANDS

CITY           SKY/WX    TMP DP  RH WIND       PRES   REMARKS
ALBUQUERQUE    MOCLDY    85  47  26 N15G22    30.19R
6HR MIN TEMP:  85; 6HR MAX TEMP:  98;

DOUBLE EAGLE   FAIR      79  47  32 NW10      30.22S
MORIARTY ARPT  FAIR      76  40  27 CALM      30.27R
6HR MIN TEMP:  76; 6HR MAX TEMP:  94;

CLINES CORNERS FAIR      74  44  34 S14       30.33F
6HR MIN TEMP:  74; 6HR MAX TEMP:  84; 6HR PCP: TRACE;

BELEN          FAIR      81  44  26 N3        30.18R
6HR MIN TEMP:  81; 6HR MAX TEMP:  99;

SOCORRO        FAIR      84  45  25 NW13G21   30.15R
6HR MIN TEMP:  84; 6HR MAX TEMP:  99;


$$
NMZ524>526-539-540-230700-
SOUTHCENTRAL MOUNTAINS

CITY           SKY/WX    TMP DP  RH WIND       PRES   REMARKS
RUIDOSO          N/A     68  41  37 SE6       30.36F

$$
NMZ527>531-230700-
NORTHEAST HIGHLANDS/NORTHEAST PLAINS

CITY           SKY/WX    TMP DP  RH WIND       PRES   REMARKS
LAS VEGAS      FAIR      70  44  39 SW3       30.31S
6HR MIN TEMP:  68; 6HR MAX TEMP:  88;

RATON          FAIR     N/A N/A N/A W9        30.24S
                                      6HR PCP: TRACE;

CLAYTON        FAIR      77  49  37 SW13      30.16R
6HR MIN TEMP:  74; 6HR MAX TEMP:  97;


$$
NMZ532>537-230700-
EASTCENTRAL PLAINS

CITY           SKY/WX    TMP DP  RH WIND       PRES   REMARKS
TUCUMCARI      FAIR      82  45  27 S15       30.08R
6HR MIN TEMP:  82; 6HR MAX TEMP: 103;

CANNON AFB     FAIR      72  50  45 SE5       30.13S
6HR MIN TEMP:  72; 6HR MAX TEMP:  97;

CLOVIS AIRPORT FAIR      72  48  43 S5        30.13S

$$
NMZ028-029-538-230700-
SOUTHEAST PLAINS

CITY           SKY/WX    TMP DP  RH WIND       PRES   REMARKS
ROSWELL        FAIR      78  44  29 S8        30.08R
6HR MIN TEMP:  78; 6HR MAX TEMP: 103;

ARTESIA        FAIR      79  48  34 S9        30.08S
CARLSBAD       FAIR      80  50  34 S7        30.06R
6HR MIN TEMP:  80; 6HR MAX TEMP: 100;

HOBBS          FAIR      75  50  41 SE5       30.11S


$$



USA.gov is the U.S. government's official web portal to all federal, state and local government web resources and services.